Погода в Глубоком

Россия / Кемеровская область (Кузбасс)     55°31′32″N   85°42′46″E
темп.,
°C
ветер,
м/с
пор.,
м/с
влажн.,
%
обл.,
%
осадки,
мм/ч
давл.,
гПа
погр.,
м
23 апреля, пт
пт2301:00−2ссв39915 0.0 1043226
04:00−3ссв37935 0.0 1043193
07:00−2ссв410865 0.0 1044308
10:00+3св610555 0.0 10441309
13:00+5св8104868 0.0 10421799
16:00+6всв794782 0.0 10411975
19:00+5всв475988 0.1 10411226
22:00+1с36765 0.0 1041124
24 апреля, сб
сб2401:00−1ссв310885 0.0 1040204
04:00−1ссв4108815 0.0 1038255
07:00−1ссв41181100 0.0 1037331
10:00+4ссв6860100 0.0 1035877
13:00+6ссв5654100 0.1 10341733
16:00+6с5646100 0.1 10321758
19:00+5с3557100 0.1 10321244
22:00+2ссз227599 0.0 103338
25 апреля, вс
вс2501:00+1сз228075 0.0 103213
04:000зсз118376 0.0 103210
07:00+1зсз238321 0.0 1033103
10:00+5зсз236032 0.0 1032900
13:00+7з2349100 0.1 10311544
16:00+8сз2347100 0.0 10311495
19:00+8св225281 0.0 10311021
22:00+4юв226913 0.0 103118
26 апреля, пн
пн2601:00+3ю227311 0.0 103110
04:00+1ююв227810 0.0 103110
07:00+2ююв237971 0.0 103169
10:00+7ююв356081 0.0 1030620
13:00+9ю4548100 0.0 10281360
16:00+10ю454499 0.0 10271570
19:00+10ююв475154 0.0 1025429
22:00+6ю3970100 0.0 1024192
27 апреля, вт
вт2701:00+6ююв51366100 0.0 1021371
04:00+6ю71667100 0.0 1018518
07:00+6юз5117897 0.5 1018498
10:00+10з7125113 0.0 10181602
13:00+12зсз7103918 0.0 10192550
16:00+13з8113598 0.0 10192753
19:00+12з5840100 0.0 10191044
22:00+8зюз2253100 0.0 102121